Location: S�tio Afonso Gruber
(26.1760°S, 49.5250°W)
Time: 07:15:37
(UTC+00:00)

N. Korean satellite - Visible Passes

Search period start: 02 December 2021 00:00
Search period end: 12 December 2021 00:00
Orbit: 447 x 495 km, 97.3° (Epoch: 01 December)

Date Brightness Start Highest point End Pass type
(mag) Time Alt. Az. Time Alt. Az. Time Alt. Az.
02 Dec 7.6 07:41:51 10° NNE 07:45:10 50° ESE 07:48:37 10° S visible
03 Dec 9.6 07:14:22 10° ENE 07:16:51 19° ESE 07:19:22 10° SSE visible
05 Dec 6.9 07:49:22 10° NNE 07:52:47 69° E 07:56:20 10° S visible
06 Dec 9.2 07:21:33 10° NE 07:24:24 24° ESE 07:27:19 10° SSE visible
09 Dec 8.6 07:28:45 10° NE 07:31:52 31° ESE 07:35:05 10° SSE visible
10 Dec 9.9 07:01:58 10° E 07:03:31 12° ESE 07:05:06 10° SE visible
